This is the latest recevied weather packets stored in our database for station/object KN6WGU. If no packets are shown the sender has not sent any weather packets the latest 10 day(s).
| Time | Temp. | Humidity | Pressure | Rain* | Wind** | Luminosity | Snow |
|---|---|---|---|---|---|---|---|
| 1788135572 | 22.78° C | 86% | 1012.5 hPa | 0 mm | - | 0 W/m² | - |
| 1788135266 | 22.78° C | 85% | 1012.5 hPa | 0 mm | - | 0 W/m² | - |
| 1788134964 | 23.33° C | 85% | 1012.3 hPa | 0 mm | - | 0 W/m² | - |
| 1788134659 | 23.33° C | 84% | 1012.2 hPa | 0 mm | - | 1 W/m² | - |
| 1788134357 | 23.33° C | 84% | 1012.2 hPa | 0 mm | - | 1 W/m² | - |
| 1788134053 | 23.33° C | 84% | 1012.2 hPa | 0 mm | - | 1 W/m² | - |
| 1788133748 | 23.33° C | 83% | 1012.3 hPa | 0 mm | - | 2 W/m² | - |
| 1788133443 | 23.33° C | 83% | 1012.1 hPa | 0 mm | - | 2 W/m² | - |
| 1788133140 | 23.33° C | 82% | 1012.4 hPa | 0 mm | - | 3 W/m² | - |
| 1788132839 | 23.33° C | 82% | 1012.2 hPa | 0 mm | - | 5 W/m² | - |
| 1788132535 | 23.33° C | 81% | 1012.3 hPa | 0 mm | - | 4 W/m² | - |
| 1788132231 | 23.89° C | 81% | 1012.3 hPa | 0 mm | - | 3 W/m² | - |
| 1788131927 | 23.89° C | 81% | 1012.2 hPa | 0 mm | - | 3 W/m² | - |
| 1788131622 | 23.89° C | 80% | 1012.3 hPa | 0 mm | - | 4 W/m² | - |
| 1788131316 | 23.89° C | 79% | 1012 hPa | 0 mm | - | 10 W/m² | - |
| 1788131012 | 23.89° C | 79% | 1011.9 hPa | 0 mm | - | 11 W/m² | - |
| 1788130711 | 24.44° C | 78% | 1011.8 hPa | 0 mm | - | 13 W/m² | - |
| 1788130407 | 24.44° C | 78% | 1011.8 hPa | 0 mm | - | 20 W/m² | - |
| 1788130107 | 25° C | 77% | 1011.7 hPa | 0 mm | - | 33 W/m² | - |
| 1788129801 | 25° C | 77% | 1011.5 hPa | 0 mm | - | 46 W/m² | - |
| 1788129498 | 24.44° C | 78% | 1011.2 hPa | 0 mm | - | 59 W/m² | - |
| 1788129194 | 24.44° C | 80% | 1011.3 hPa | 0 mm | - | 98 W/m² | - |
| 1788128893 | 23.89° C | 79% | 1011.2 hPa | 0 mm | - | 58 W/m² | - |
| 1788128589 | 24.44° C | 79% | 1011.1 hPa | 0 mm | - | 28 W/m² | - |
| 1788128284 | 24.44° C | 78% | 1010.9 hPa | 0 mm | - | 19 W/m² | - |
* Rain latest hour (hover to see other rain measurements)
** Current wind speed in m/s (hover to see current wind gust speed)